Time,TemperatureF,DewpointF,PressureIn,WindDirection,WindDirectionDegrees,WindSpeedMPH,WindSpeedGustMPH,Humidity,HourlyPrecipIn,Conditions,Clouds,dailyrainin,SoftwareType,DateUTC
2013-03-06 00:02:00,37.0,26.0,29.56,North,0,2.0,10.0,64,0.00,,,0.00,,2013-03-06 05:02:00,
2013-03-06 00:12:00,37.0,26.0,29.56,North,0,2.0,10.0,64,0.00,,,0.00,,2013-03-06 05:12:00,
2013-03-06 00:22:00,37.0,26.0,29.57,North,0,4.0,10.0,65,0.00,,,0.00,,2013-03-06 05:22:00,
2013-03-06 00:32:00,36.0,26.0,29.57,North,0,6.0,7.0,66,0.00,,,0.00,,2013-03-06 05:32:00,
2013-03-06 00:42:00,36.0,26.0,29.57,North,0,6.0,7.0,66,0.00,,,0.00,,2013-03-06 05:42:00,
2013-03-06 00:52:00,36.0,26.0,29.56,North,0,5.0,8.0,67,0.00,,,0.00,,2013-03-06 05:52:00,
2013-03-06 01:02:00,36.0,26.0,29.56,North,0,4.0,10.0,68,0.00,,,0.00,,2013-03-06 06:02:00,
2013-03-06 01:11:00,36.0,26.0,29.56,North,0,4.0,10.0,68,0.00,,,0.00,,2013-03-06 06:11:00,
2013-03-06 01:22:00,36.0,26.0,29.57,North,0,3.0,8.0,68,0.00,,,0.00,,2013-03-06 06:22:00,
2013-03-06 01:32:00,36.0,27.0,29.57,North,0,7.0,9.0,69,0.00,,,0.00,,2013-03-06 06:32:00,
2013-03-06 01:42:00,36.0,27.0,29.57,North,0,7.0,9.0,69,0.00,,,0.00,,2013-03-06 06:42:00,
2013-03-06 01:52:00,36.0,27.0,29.57,North,0,3.0,10.0,69,0.00,,,0.00,,2013-03-06 06:52:00,
2013-03-06 02:01:00,36.0,27.0,29.57,North,0,6.0,10.0,70,0.00,,,0.00,,2013-03-06 07:01:00,
2013-03-06 02:11:00,36.0,27.0,29.57,North,0,6.0,10.0,70,0.00,,,0.00,,2013-03-06 07:11:00,
2013-03-06 02:22:00,35.0,27.0,29.59,North,0,6.0,9.0,71,0.00,,,0.00,,2013-03-06 07:22:00,
2013-03-06 02:32:00,35.0,27.0,29.59,North,0,6.0,9.0,71,0.00,,,0.00,,2013-03-06 07:32:00,
2013-03-06 02:42:00,35.0,27.0,29.59,North,0,6.0,9.0,71,0.00,,,0.00,,2013-03-06 07:42:00,
2013-03-06 02:52:00,33.0,30.0,29.60,North,0,9.0,9.0,87,0.00,,,0.00,,2013-03-06 07:52:00,
2013-03-06 03:01:00,32.0,30.0,29.60,North,0,6.0,7.0,91,0.00,,,0.00,,2013-03-06 08:01:00,
2013-03-06 03:11:00,32.0,30.0,29.60,North,0,6.0,7.0,91,0.00,,,0.00,,2013-03-06 08:11:00,
2013-03-06 03:21:00,32.0,30.0,29.60,North,0,4.0,7.0,91,0.00,,,0.00,,2013-03-06 08:21:00,
2013-03-06 03:32:00,32.0,30.0,29.60,North,0,4.0,7.0,91,0.00,,,0.00,,2013-03-06 08:32:00,
2013-03-06 03:42:00,32.0,30.0,29.60,North,0,4.0,7.0,91,0.00,,,0.00,,2013-03-06 08:42:00,
2013-03-06 03:52:00,33.0,30.0,29.61,North,0,5.0,11.0,90,0.00,,,0.00,,2013-03-06 08:52:00,
2013-03-06 04:01:00,33.0,30.0,29.62,North,0,7.0,13.0,89,0.00,,,0.00,,2013-03-06 09:01:00,
2013-03-06 04:12:00,33.0,30.0,29.62,North,0,7.0,13.0,89,0.00,,,0.00,,2013-03-06 09:12:00,
2013-03-06 04:22:00,33.0,30.0,29.63,North,0,7.0,13.0,88,0.00,,,0.00,,2013-03-06 09:22:00,
2013-03-06 04:32:00,34.0,31.0,29.63,North,0,3.0,10.0,87,0.00,,,0.00,,2013-03-06 09:32:00,
2013-03-06 04:42:00,34.0,31.0,29.63,North,0,3.0,10.0,87,0.00,,,0.00,,2013-03-06 09:42:00,
2013-03-06 04:52:00,34.0,31.0,29.64,North,0,8.0,14.0,87,0.00,,,0.00,,2013-03-06 09:52:00,
2013-03-06 05:01:00,34.0,30.0,29.65,North,0,9.0,9.0,86,0.00,,,0.00,,2013-03-06 10:01:00,
2013-03-06 05:11:00,34.0,30.0,29.65,North,0,9.0,9.0,86,0.00,,,0.00,,2013-03-06 10:11:00,
2013-03-06 05:22:00,34.0,30.0,29.66,North,0,9.0,9.0,86,0.00,,,0.00,,2013-03-06 10:22:00,
2013-03-06 05:32:00,34.0,30.0,29.66,North,0,2.0,5.0,86,0.00,,,0.00,,2013-03-06 10:32:00,
2013-03-06 05:42:00,34.0,30.0,29.66,North,0,2.0,5.0,86,0.00,,,0.00,,2013-03-06 10:42:00,
2013-03-06 05:52:00,35.0,30.0,29.67,North,0,9.0,9.0,83,0.00,,,0.00,,2013-03-06 10:52:00,
2013-03-06 06:02:00,35.0,30.0,29.68,North,0,6.0,13.0,82,0.00,,,0.00,,2013-03-06 11:02:00,
2013-03-06 06:11:00,35.0,30.0,29.68,North,0,6.0,13.0,82,0.00,,,0.00,,2013-03-06 11:11:00,
2013-03-06 06:22:00,35.0,30.0,29.70,North,0,7.0,9.0,83,0.00,,,0.00,,2013-03-06 11:22:00,
2013-03-06 06:32:00,35.0,30.0,29.70,North,0,12.0,15.0,83,0.00,,,0.00,,2013-03-06 11:32:00,
2013-03-06 06:42:00,35.0,30.0,29.70,North,0,12.0,15.0,83,0.00,,,0.00,,2013-03-06 11:42:00,
2013-03-06 06:52:00,35.0,30.0,29.72,North,0,4.0,10.0,83,0.00,,,0.00,,2013-03-06 11:52:00,
2013-03-06 07:02:00,35.0,31.0,29.72,North,0,4.0,8.0,84,0.00,,,0.00,,2013-03-06 12:02:00,
2013-03-06 07:12:00,35.0,31.0,29.72,North,0,4.0,8.0,84,0.00,,,0.00,,2013-03-06 12:12:00,
2013-03-06 07:22:00,35.0,31.0,29.74,North,0,4.0,9.0,84,0.00,,,0.00,,2013-03-06 12:22:00,
2013-03-06 07:33:00,35.0,31.0,29.74,North,0,5.0,12.0,84,0.00,,,0.00,,2013-03-06 12:33:00,
2013-03-06 07:42:00,35.0,31.0,29.74,North,0,5.0,12.0,84,0.00,,,0.00,,2013-03-06 12:42:00,
2013-03-06 07:53:00,35.0,31.0,29.75,North,0,8.0,8.0,85,0.00,,,0.00,,2013-03-06 12:53:00,
2013-03-06 08:02:00,35.0,31.0,29.76,North,0,4.0,8.0,85,0.00,,,0.00,,2013-03-06 13:02:00,
2013-03-06 08:12:00,35.0,31.0,29.76,North,0,4.0,8.0,85,0.00,,,0.00,,2013-03-06 13:12:00,
2013-03-06 08:22:00,35.0,31.0,29.78,North,0,5.0,7.0,85,0.00,,,0.00,,2013-03-06 13:22:00,
2013-03-06 08:32:00,35.0,31.0,29.79,North,0,3.0,6.0,84,0.00,,,0.00,,2013-03-06 13:32:00,
2013-03-06 08:42:00,35.0,31.0,29.79,North,0,3.0,6.0,84,0.00,,,0.00,,2013-03-06 13:42:00,
2013-03-06 08:52:00,33.0,30.0,29.80,North,0,2.0,5.0,87,0.00,,,0.00,,2013-03-06 13:52:00,
2013-03-06 09:02:00,33.0,30.0,29.82,North,0,4.0,7.0,88,0.00,,,0.00,,2013-03-06 14:02:00,
2013-03-06 09:11:00,33.0,30.0,29.82,North,0,4.0,7.0,88,0.00,,,0.00,,2013-03-06 14:11:00,
2013-03-06 09:22:00,33.0,30.0,29.82,North,0,1.0,5.0,88,0.00,,,0.00,,2013-03-06 14:22:00,
2013-03-06 09:32:00,33.0,30.0,29.83,North,0,6.0,8.0,88,0.00,,,0.00,,2013-03-06 14:32:00,
2013-03-06 09:42:00,33.0,30.0,29.83,North,0,6.0,8.0,88,0.00,,,0.00,,2013-03-06 14:42:00,
2013-03-06 09:52:00,33.0,30.0,29.85,North,0,3.0,8.0,88,0.00,,,0.00,,2013-03-06 14:52:00,
2013-03-06 10:02:00,34.0,31.0,29.85,North,0,3.0,6.0,88,0.00,,,0.00,,2013-03-06 15:02:00,
2013-03-06 10:12:00,34.0,31.0,29.85,North,0,3.0,6.0,88,0.00,,,0.00,,2013-03-06 15:12:00,
2013-03-06 10:22:00,34.0,31.0,29.85,North,0,4.0,6.0,87,0.00,,,0.00,,2013-03-06 15:22:00,
2013-03-06 10:32:00,35.0,32.0,29.86,North,0,3.0,6.0,87,0.00,,,0.00,,2013-03-06 15:32:00,
2013-03-06 10:42:00,35.0,32.0,29.86,North,0,3.0,6.0,87,0.00,,,0.00,,2013-03-06 15:42:00,
2013-03-06 10:52:00,35.0,31.0,29.87,North,0,2.0,6.0,84,0.00,,,0.00,,2013-03-06 15:52:00,
2013-03-06 11:02:00,36.0,32.0,29.88,North,0,1.0,6.0,84,0.00,,,0.00,,2013-03-06 16:02:00,
2013-03-06 11:12:00,36.0,32.0,29.88,North,0,1.0,6.0,84,0.00,,,0.00,,2013-03-06 16:12:00,
2013-03-06 11:21:00,36.0,31.0,29.89,North,0,5.0,7.0,83,0.00,,,0.00,,2013-03-06 16:21:00,
2013-03-06 11:32:00,37.0,32.0,29.89,North,0,4.0,7.0,82,0.00,,,0.00,,2013-03-06 16:32:00,
2013-03-06 11:42:00,37.0,32.0,29.89,North,0,4.0,7.0,82,0.00,,,0.00,,2013-03-06 16:42:00,
2013-03-06 11:52:00,38.0,32.0,29.89,North,0,2.0,8.0,79,0.00,,,0.00,,2013-03-06 16:52:00,
2013-03-06 12:01:00,38.0,32.0,29.90,North,0,5.0,6.0,78,0.00,,,0.00,,2013-03-06 17:01:00,
2013-03-06 12:11:00,38.0,32.0,29.90,North,0,5.0,6.0,78,0.00,,,0.00,,2013-03-06 17:11:00,
2013-03-06 12:22:00,39.0,33.0,29.91,North,0,4.0,6.0,78,0.00,,,0.00,,2013-03-06 17:22:00,
2013-03-06 12:32:00,39.0,32.0,29.91,North,0,3.0,5.0,77,0.00,,,0.00,,2013-03-06 17:32:00,
2013-03-06 12:42:00,39.0,32.0,29.91,North,0,3.0,5.0,77,0.00,,,0.00,,2013-03-06 17:42:00,
2013-03-06 12:53:00,40.0,33.0,29.91,North,0,4.0,8.0,75,0.00,,,0.00,,2013-03-06 17:53:00,
2013-03-06 13:02:00,40.0,33.0,29.91,North,0,2.0,6.0,75,0.00,,,0.00,,2013-03-06 18:02:00,
2013-03-06 13:29:00,41.0,33.0,29.91,North,0,4.0,8.0,73,0.00,,,0.00,,2013-03-06 18:29:00,
2013-03-06 13:42:00,41.0,32.0,29.91,North,0,5.0,6.0,71,0.00,,,0.00,,2013-03-06 18:42:00,
2013-03-06 13:53:00,42.0,34.0,29.91,North,0,5.0,10.0,72,0.00,,,0.00,,2013-03-06 18:53:00,
2013-03-06 14:02:00,42.0,34.0,29.91,North,0,5.0,10.0,72,0.00,,,0.00,,2013-03-06 19:02:00,
2013-03-06 14:11:00,42.0,34.0,29.91,North,0,5.0,10.0,72,0.00,,,0.00,,2013-03-06 19:11:00,
2013-03-06 14:22:00,41.0,32.0,29.92,North,0,1.0,6.0,69,0.00,,,0.00,,2013-03-06 19:22:00,
2013-03-06 14:33:00,41.0,32.0,29.92,North,0,3.0,5.0,69,0.00,,,0.00,,2013-03-06 19:33:00,
2013-03-06 14:43:00,41.0,32.0,29.92,North,0,3.0,5.0,69,0.00,,,0.00,,2013-03-06 19:43:00,
2013-03-06 14:53:00,41.0,32.0,29.93,North,0,3.0,7.0,69,0.00,,,0.00,,2013-03-06 19:53:00,
2013-03-06 15:02:00,41.0,32.0,29.93,North,0,4.0,8.0,70,0.00,,,0.00,,2013-03-06 20:02:00,
2013-03-06 15:12:00,41.0,32.0,29.93,North,0,4.0,8.0,70,0.00,,,0.00,,2013-03-06 20:12:00,
2013-03-06 15:22:00,41.0,32.0,29.94,North,0,3.0,6.0,71,0.00,,,0.00,,2013-03-06 20:22:00,
2013-03-06 15:32:00,41.0,32.0,29.95,North,0,4.0,6.0,70,0.00,,,0.00,,2013-03-06 20:32:00,
2013-03-06 15:42:00,41.0,32.0,29.95,North,0,4.0,6.0,70,0.00,,,0.00,,2013-03-06 20:42:00,
2013-03-06 15:53:00,42.0,33.0,29.95,North,0,4.0,6.0,70,0.00,,,0.00,,2013-03-06 20:53:00,
2013-03-06 16:02:00,42.0,33.0,29.96,North,0,3.0,5.0,69,0.00,,,0.00,,2013-03-06 21:02:00,
2013-03-06 16:12:00,42.0,33.0,29.96,North,0,3.0,5.0,69,0.00,,,0.00,,2013-03-06 21:12:00,
2013-03-06 16:22:00,41.0,31.0,29.96,North,0,3.0,7.0,68,0.00,,,0.00,,2013-03-06 21:22:00,
2013-03-06 16:32:00,41.0,32.0,29.96,North,0,1.0,6.0,69,0.00,,,0.00,,2013-03-06 21:32:00,
2013-03-06 16:42:00,41.0,32.0,29.96,North,0,1.0,6.0,69,0.00,,,0.00,,2013-03-06 21:42:00,
2013-03-06 16:52:00,41.0,32.0,29.96,North,0,7.0,8.0,69,0.00,,,0.00,,2013-03-06 21:52:00,
2013-03-06 17:02:00,41.0,32.0,29.96,North,0,3.0,6.0,69,0.00,,,0.00,,2013-03-06 22:02:00,
2013-03-06 17:11:00,41.0,32.0,29.96,North,0,3.0,6.0,69,0.00,,,0.00,,2013-03-06 22:11:00,
2013-03-06 17:22:00,41.0,32.0,29.96,North,0,4.0,6.0,69,0.00,,,0.00,,2013-03-06 22:22:00,
2013-03-06 17:32:00,40.0,31.0,29.97,North,0,7.0,8.0,69,0.00,,,0.00,,2013-03-06 22:32:00,
2013-03-06 17:42:00,40.0,31.0,29.97,North,0,7.0,8.0,69,0.00,,,0.00,,2013-03-06 22:42:00,
2013-03-06 17:52:00,40.0,30.0,29.98,North,0,5.0,10.0,68,0.00,,,0.00,,2013-03-06 22:52:00,
2013-03-06 18:01:00,39.0,30.0,29.98,North,0,4.0,10.0,70,0.00,,,0.00,,2013-03-06 23:01:00,
2013-03-06 18:11:00,39.0,30.0,29.98,North,0,4.0,10.0,70,0.00,,,0.00,,2013-03-06 23:11:00,
2013-03-06 18:22:00,38.0,30.0,29.99,North,0,3.0,7.0,72,0.00,,,0.00,,2013-03-06 23:22:00,
2013-03-06 18:32:00,38.0,30.0,30.00,North,0,4.0,4.0,74,0.00,,,0.00,,2013-03-06 23:32:00,
2013-03-06 18:42:00,38.0,30.0,30.00,North,0,4.0,4.0,74,0.00,,,0.00,,2013-03-06 23:42:00,
2013-03-06 18:52:00,37.0,30.0,30.01,North,0,5.0,6.0,76,0.00,,,0.00,,2013-03-06 23:52:00,
2013-03-06 19:02:00,36.0,29.0,30.01,North,0,3.0,7.0,77,0.00,,,0.00,,2013-03-07 00:02:00,
2013-03-06 19:11:00,36.0,29.0,30.01,North,0,3.0,7.0,77,0.00,,,0.00,,2013-03-07 00:11:00,
2013-03-06 19:22:00,35.0,29.0,30.02,North,0,2.0,5.0,78,0.00,,,0.00,,2013-03-07 00:22:00,
2013-03-06 19:32:00,34.0,29.0,30.03,North,0,1.0,2.0,82,0.00,,,0.00,,2013-03-07 00:32:00,
2013-03-06 19:42:00,34.0,29.0,30.03,North,0,1.0,2.0,82,0.00,,,0.00,,2013-03-07 00:42:00,
2013-03-06 19:52:00,33.0,29.0,30.04,North,0,1.0,4.0,84,0.00,,,0.00,,2013-03-07 00:52:00,
2013-03-06 20:02:00,33.0,29.0,30.04,North,0,2.0,4.0,86,0.00,,,0.00,,2013-03-07 01:02:00,
2013-03-06 20:11:00,33.0,29.0,30.04,North,0,2.0,4.0,86,0.00,,,0.00,,2013-03-07 01:11:00,
2013-03-06 20:21:00,32.0,29.0,30.05,North,0,2.0,6.0,87,0.00,,,0.00,,2013-03-07 01:21:00,
2013-03-06 20:32:00,32.0,29.0,30.05,North,0,1.0,5.0,88,0.00,,,0.00,,2013-03-07 01:32:00,
2013-03-06 20:42:00,32.0,29.0,30.05,North,0,1.0,5.0,88,0.00,,,0.00,,2013-03-07 01:42:00,
2013-03-06 20:52:00,31.0,28.0,30.05,North,0,1.0,4.0,90,0.00,,,0.00,,2013-03-07 01:52:00,
2013-03-06 21:01:00,31.0,28.0,30.05,North,0,2.0,4.0,90,0.00,,,0.00,,2013-03-07 02:01:00,
2013-03-06 21:11:00,31.0,28.0,30.05,North,0,2.0,4.0,90,0.00,,,0.00,,2013-03-07 02:11:00,
2013-03-06 21:21:00,31.0,29.0,30.06,North,0,2.0,3.0,91,0.00,,,0.00,,2013-03-07 02:21:00,
2013-03-06 21:32:00,30.0,28.0,30.06,North,0,2.0,4.0,92,0.00,,,0.00,,2013-03-07 02:32:00,
2013-03-06 21:42:00,30.0,28.0,30.06,North,0,2.0,4.0,92,0.00,,,0.00,,2013-03-07 02:42:00,
2013-03-06 21:52:00,30.0,28.0,30.06,North,0,2.0,4.0,92,0.00,,,0.00,,2013-03-07 02:52:00,
2013-03-06 22:02:00,30.0,28.0,30.06,North,0,2.0,4.0,92,0.00,,,0.00,,2013-03-07 03:02:00,
2013-03-06 22:11:00,30.0,28.0,30.06,North,0,2.0,4.0,92,0.00,,,0.00,,2013-03-07 03:11:00,
2013-03-06 22:22:00,30.0,28.0,30.07,North,0,2.0,4.0,93,0.00,,,0.00,,2013-03-07 03:22:00,
2013-03-06 22:32:00,30.0,28.0,30.07,North,0,3.0,5.0,93,0.00,,,0.00,,2013-03-07 03:32:00,
2013-03-06 22:42:00,30.0,28.0,30.07,North,0,3.0,5.0,93,0.00,,,0.00,,2013-03-07 03:42:00,
2013-03-06 22:52:00,30.0,28.0,30.08,North,0,3.0,4.0,93,0.00,,,0.00,,2013-03-07 03:52:00,
2013-03-06 23:02:00,30.0,28.0,30.08,North,0,2.0,5.0,93,0.00,,,0.00,,2013-03-07 04:02:00,
2013-03-06 23:12:00,30.0,28.0,30.08,North,0,2.0,5.0,93,0.00,,,0.00,,2013-03-07 04:12:00,
2013-03-06 23:22:00,29.0,27.0,30.08,North,0,2.0,4.0,93,0.00,,,0.00,,2013-03-07 04:22:00,
2013-03-06 23:32:00,29.0,27.0,30.08,North,0,2.0,3.0,93,0.00,,,0.00,,2013-03-07 04:32:00,
2013-03-06 23:42:00,29.0,27.0,30.08,North,0,2.0,3.0,93,0.00,,,0.00,,2013-03-07 04:42:00,
2013-03-06 23:52:00,29.0,27.0,30.08,North,0,2.0,2.0,93,0.00,,,0.00,,2013-03-07 04:52:00,